Nome, AK

5:34 AM AKST on January 18, 2017 (GMT -0900)
Nome

Weather History for PAOM - March, 2013

Change the Weather History Date:

Sunday, March 31, 2013

  Actual Average Record
Temperature  
Mean Temperature 8 °F 13 °F  
Max Temperature 13 °F 21 °F 42 °F (1993)
Min Temperature 2 °F - -28 °F (1920)
Degree Days  
Heating Degree Days 57 52  
Month to date heating degree days 1751 1696  
Since 1 July heating degree days 11289 10978  
Cooling Degree Days 0    
Month to date cooling degree days 0  
Year to date cooling degree days 0  
Moisture  
Dew Point 10 °F    
Average Humidity 0    
Maximum Humidity 0    
Minimum Humidity 0    
Precipitation  
Precipitation T in 0.02 in 0.45 in (1998)
Month to date precipitation 0.64 0.65  
Year to date precipitation 2.16 2.52  
Snow  
Snow T in 0.20 in 6.30 in (1998)
Month to date snowfall 9.1 8.9  
Since 1 July snowfall 50.4 65.6  
Snow Depth 24.00 in    
Sea Level Pressure  
Sea Level Pressure 30.27 in    
Wind  
Wind Speed 6 mph (ESE)    
Max Wind Speed 10 mph    
Max Gust Speed 12 mph    
Visibility 3 miles    
Events Fog , Snow    
T = Trace of Precipitation, MM = Missing Value Source: NWS Daily Summary

Daily Weather History Graph

Daily Weather History Graph

Search for Another Location

Airport or City:

Trip Planner

Search our weather history database for the weather conditions in past years. The results will help you decide how hot, cold, wet, or windy it might be!

Date:

Astronomy

Mar. 31, 2013 Rise Set
Actual Time 8:20 AM AKDT 9:52 PM AKDT
Civil Twilight 7:30 AM AKDT 10:43 PM AKDT
Nautical Twilight 6:25 AM AKDT 11:49 PM AKDT
Astronomical Twilight 4:59 AM AKDT 1:18 AM AKDT
Moon 3:55 AM AKDT (3/31) 9:33 AM AKDT (3/31)
Length of Visible Light 15h 12m
Length of Day
13h 31m
Waning Gibbous, 76% of the Moon is Illuminated
Mar 31
Waning Gibbous
Apr 2
Last Quarter
Apr 10
New
Apr 18
First Quarter
Apr 25
Full

Hourly Weather History & Observations

Time (AKDT) Temp. Windchill Dew Point Humidity Pressure Visibility Wind Dir Wind Speed Gust Speed Precip Events Conditions
12:53 AM 12.0 °F 4.1 °F 9.0 °F 88% 30.26 in 6.0 mi NE 4.6 mph - 0.00 in Snow Light Snow
1:53 AM 10.9 °F 1.4 °F 9.0 °F 92% 30.26 in 7.0 mi NNE 5.8 mph - 0.00 in Snow Light Snow
2:53 AM 10.9 °F 1.4 °F 8.1 °F 88% 30.27 in 6.0 mi NE 5.8 mph - 0.00 in Snow Light Snow
3:53 AM 10.9 °F 1.4 °F 8.1 °F 88% 30.27 in 9.0 mi ENE 5.8 mph - 0.00 in Snow Light Snow
4:53 AM 10.0 °F 3.6 °F 8.1 °F 92% 30.28 in 8.0 mi ENE 3.5 mph - 0.00 in Snow Light Snow
5:53 AM 10.0 °F 1.8 °F 8.1 °F 92% 30.28 in 6.0 mi ENE 4.6 mph - 0.00 in Snow Light Snow
6:53 AM 10.0 °F - 8.1 °F 92% 30.28 in 8.0 mi Calm Calm - 0.00 in Snow Light Snow
7:19 AM 10.4 °F - 8.6 °F 92% 30.28 in 8.0 mi Calm Calm - 0.00 in Snow Light Snow
7:46 AM 10.4 °F - 10.4 °F 100% 30.28 in 2.5 mi Calm Calm - 0.00 in Snow Light Snow
7:53 AM 10.9 °F 2.9 °F 9.0 °F 92% 30.28 in 6.0 mi ESE 4.6 mph - 0.00 in Snow Light Snow
8:53 AM 10.9 °F 2.9 °F 10.0 °F 96% 30.29 in 8.0 mi East 4.6 mph - 0.00 in   Overcast
9:20 AM 10.4 °F -0.4 °F 10.4 °F 100% 30.27 in 1.5 mi East 6.9 mph - N/A   Overcast
9:53 AM 10.9 °F 2.9 °F 10.0 °F 96% 30.28 in 0.5 mi East 4.6 mph - N/A Fog Light Freezing Fog
10:35 AM 10.4 °F -0.4 °F 8.6 °F 92% 30.28 in 0.8 mi ESE 6.9 mph - N/A   Mist
10:53 AM 10.0 °F 0.4 °F 9.0 °F 95% 30.28 in 1.0 mi ESE 5.8 mph - 0.00 in Snow Light Snow
11:37 AM 10.4 °F -0.4 °F 10.4 °F 100% 30.29 in 2.0 mi ESE 6.9 mph - 0.00 in Snow Light Snow
11:53 AM 10.9 °F 1.4 °F 10.0 °F 96% 30.30 in 1.5 mi ESE 5.8 mph - 0.00 in Snow Light Snow
12:05 PM 10.4 °F -0.4 °F 10.4 °F 100% 30.29 in 0.8 mi ESE 6.9 mph - 0.00 in   Overcast
12:35 PM 10.4 °F 0.8 °F 8.6 °F 92% 30.28 in 0.2 mi SE 5.8 mph - 0.00 in Fog , Snow Light Snow
12:43 PM 10.4 °F -0.4 °F 8.6 °F 92% 30.28 in 2.0 mi ESE 6.9 mph - 0.00 in Snow Light Snow
12:53 PM 10.9 °F 1.4 °F 10.0 °F 96% 30.28 in 3.0 mi ESE 5.8 mph - 0.00 in Snow Light Snow
1:02 PM 10.4 °F 0.8 °F 10.4 °F 100% 30.28 in 1.0 mi SE 5.8 mph - 0.00 in   Overcast
1:53 PM 12.0 °F 4.1 °F 10.9 °F 95% 30.29 in 1.0 mi ESE 4.6 mph - 0.00 in Snow Light Snow
2:33 PM 12.2 °F 1.7 °F 10.4 °F 92% 30.29 in 3.0 mi ESE 6.9 mph - 0.00 in Snow Light Snow
2:53 PM 12.0 °F 4.1 °F 10.0 °F 92% 30.29 in 3.0 mi ESE 4.6 mph - 0.00 in Snow Light Snow
3:53 PM 12.0 °F 1.5 °F 10.9 °F 95% 30.28 in 3.0 mi ESE 6.9 mph - 0.00 in Snow Light Snow
4:53 PM 12.9 °F 1.6 °F 10.9 °F 92% 30.27 in 3.0 mi ESE 8.1 mph - 0.00 in   Overcast
5:53 PM 12.0 °F -1.3 °F 10.0 °F 92% 30.26 in 3.0 mi ESE 10.4 mph - N/A   Overcast
6:53 PM 12.0 °F 0.5 °F 9.0 °F 88% 30.25 in 10.0 mi ESE 8.1 mph - N/A   Overcast
7:53 PM 12.0 °F 0.5 °F 10.9 °F 95% 30.25 in 3.0 mi East 8.1 mph - 0.00 in   Overcast
8:02 PM 12.2 °F 0.7 °F 10.4 °F 92% 30.24 in 1.8 mi ESE 8.1 mph - N/A   Overcast
8:08 PM 10.4 °F -2.4 °F 10.4 °F 100% 30.24 in 0.5 mi ESE 9.2 mph - N/A Fog Light Freezing Fog
8:53 PM 10.9 °F -1.8 °F 10.0 °F 96% 30.24 in 0.8 mi ESE 9.2 mph - N/A   Overcast
8:56 PM 10.4 °F -1.5 °F 10.4 °F 100% 30.24 in 0.5 mi ESE 8.1 mph - N/A Fog Light Freezing Fog
9:28 PM 10.4 °F -1.5 °F 10.4 °F 100% 30.24 in 0.2 mi ESE 8.1 mph - N/A Fog Light Freezing Fog
9:37 PM 10.4 °F -1.5 °F 10.4 °F 100% 30.23 in 0.2 mi ESE 8.1 mph - N/A Fog Light Freezing Fog
9:51 PM 10.4 °F -0.4 °F 10.4 °F 100% 30.23 in 0.2 mi ESE 6.9 mph - N/A Fog Light Freezing Fog
9:53 PM 10.9 °F -0.8 °F 10.0 °F 96% 30.23 in 0.2 mi ESE 8.1 mph - N/A Fog Light Freezing Fog
10:12 PM 10.4 °F -0.4 °F 10.4 °F 100% 30.23 in 0.2 mi ESE 6.9 mph - N/A Fog Light Freezing Fog
10:53 PM 10.9 °F 0.2 °F 10.0 °F 96% 30.24 in 0.5 mi East 6.9 mph - N/A Fog Light Freezing Fog
11:53 PM 7.0 °F 0.1 °F 5.0 °F 92% 30.24 in 0.5 mi NE 3.5 mph - N/A Fog Light Freezing Fog